DateTimeUTC,F1_A11,F1_S11,BsB_S11,BsG_S11,BsR_S11,BbsB_S11,BbsG_S11,BbsR_S11,BaB_A11,BaG_A11,BaR_A11,Tu_S11,T_S11,Uu_S11,U_S11,P_S11,T1_A11
2021-08-09T02:00:00Z,00000200,20000000,,,,,,,-000.04,0000.35,0000.02,18.3,25.2,05.4,03.5,0669.6,31.0
2021-08-09T02:01:00Z,00000200,20000000,,,,,,,-000.34,-000.52,-000.42,18.3,25.2,05.3,03.5,0669.6,31.0
2021-08-09T02:02:00Z,00000200,20000000,,,,,,,0000.04,-000.17,0000.05,18.3,25.2,05.3,03.5,0669.6,31.0
2021-08-09T02:03:00Z,00000200,60000000,,,,,,,-000.03,0000.03,0000.18,18.3,25.2,05.3,03.5,0669.6,31.0
2021-08-09T02:04:00Z,00000200,40000000,0002.39,0001.41,0000.39,-000.21,0000.48,0000.27,-000.23,0000.08,-000.02,18.4,25.0,05.4,03.6,0670.5,31.0
2021-08-09T02:05:00Z,00000200,00000000,0001.62,0001.29,0000.91,0000.07,0000.15,0000.53,0000.35,0000.13,0000.42,18.5,25.0,05.4,03.6,0670.6,31.0
2021-08-09T02:06:00Z,00000200,00000000,0001.17,0001.18,0000.64,0000.57,0000.14,0000.22,-000.16,-000.18,-000.05,18.5,25.0,05.4,03.6,0670.6,31.0
2021-08-09T02:07:00Z,00000200,00000000,0001.46,0001.42,0000.58,0000.75,0000.17,0000.12,-000.04,0000.11,-000.08,18.5,25.0,05.5,03.7,0670.6,31.0
2021-08-09T02:08:00Z,00000200,00000000,0001.55,0001.36,0000.32,0000.05,0000.10,0000.04,-000.38,-000.22,0000.34,18.5,25.0,05.4,03.6,0670.6,31.0
2021-08-09T02:09:00Z,00000200,00000000,0001.45,0001.50,0000.62,0000.13,0000.32,0000.04,0000.35,0000.04,0000.07,18.6,25.0,05.3,03.6,0670.6,31.0
2021-08-09T02:10:00Z,00000200,00000000,0001.18,0001.27,0000.56,0000.21,0000.07,0000.13,-000.32,0000.05,0000.04,18.6,25.0,05.3,03.6,0670.6,31.0
2021-08-09T02:11:00Z,00000200,00000000,0001.67,0001.12,0000.46,0000.56,0000.23,0000.21,0000.11,0000.26,0000.17,18.7,25.1,05.3,03.6,0670.6,31.0
2021-08-09T02:12:00Z,00000200,00000000,0001.27,0001.07,0000.35,0000.04,0000.11,-000.05,0000.45,0000.03,0000.50,18.7,25.1,05.4,03.6,0670.6,31.0
2021-08-09T02:13:00Z,00000200,00000000,0000.97,0001.16,0000.65,0000.29,0000.36,0000.24,-000.62,-000.02,-000.64,18.7,25.0,05.3,03.6,0670.6,31.0
2021-08-09T02:14:00Z,00000200,00000000,0001.14,0001.53,0000.59,0000.24,0000.26,0000.30,0000.40,-000.24,0000.55,18.7,25.1,05.2,03.5,0670.7,31.0
2021-08-09T02:15:00Z,00000200,00000000,0001.12,0001.01,0000.59,0000.17,0000.33,0000.24,0000.03,-000.22,-000.12,18.7,25.1,05.1,03.5,0670.7,31.0
2021-08-09T02:16:00Z,00000200,00000000,0000.82,0001.14,0000.43,0000.33,0000.17,0000.19,-000.12,0000.60,0000.12,18.7,25.1,05.1,03.5,0670.7,31.0
2021-08-09T02:17:00Z,00000200,00000000,0001.40,0001.26,0000.73,0000.21,0000.20,-000.12,0000.32,-000.07,0000.38,18.7,25.0,05.3,03.6,0670.7,31.0
2021-08-09T02:18:00Z,00000200,00000000,0001.56,0001.23,0000.59,0000.16,0000.23,0000.21,-000.18,0000.15,0000.07,18.7,25.0,05.3,03.6,0670.7,31.0
2021-08-09T02:19:00Z,00000200,00000000,0001.50,0001.36,0000.87,0000.29,0000.52,0000.36,0000.14,0000.26,0000.58,18.6,25.0,05.2,03.5,0670.7,31.0
2021-08-09T02:20:00Z,00000200,00000000,0001.88,0001.48,0000.39,0000.40,0000.02,-000.06,0000.29,0000.26,0000.04,18.6,25.0,05.2,03.5,0670.7,31.0
2021-08-09T02:21:00Z,00000200,00000000,0001.40,0001.63,0001.12,0000.18,0000.06,0000.30,-000.14,0000.04,0000.35,18.6,25.0,05.3,03.6,0670.6,31.0
2021-08-09T02:22:00Z,00000200,00000000,0001.30,0001.42,0000.92,0000.54,0000.32,0000.01,0000.26,0000.14,-000.16,18.6,25.0,05.3,03.6,0670.7,31.0
2021-08-09T02:23:00Z,00000200,00000000,0001.64,0001.39,0000.76,-000.21,0000.17,0000.26,-000.10,-000.23,0000.23,18.6,25.0,05.2,03.5,0670.7,31.0
2021-08-09T02:24:00Z,00000200,00000000,0001.65,0001.60,0000.85,0000.30,0000.14,0000.21,-000.12,-000.05,0000.13,18.6,25.0,05.2,03.5,0670.7,31.0
2021-08-09T02:25:00Z,00000200,00000000,0001.09,0001.64,0001.10,0000.12,0000.43,0000.34,0000.05,0000.14,0000.24,18.6,25.0,05.2,03.6,0670.6,31.0
2021-08-09T02:26:00Z,00000200,00000000,0001.95,0001.90,0000.52,0000.89,0000.29,0000.16,0000.10,0000.16,0000.01,18.6,25.0,05.2,03.5,0670.6,31.0
2021-08-09T02:27:00Z,00000200,00000000,0001.99,0001.65,0000.60,0000.31,0000.26,0000.47,0000.08,-000.07,0000.01,18.6,25.0,05.2,03.5,0670.7,31.0
2021-08-09T02:28:00Z,00000200,00000000,0002.37,0001.39,0000.97,0001.05,0000.24,0000.32,-000.07,-000.12,0000.38,18.6,25.0,05.2,03.5,0670.6,31.0
2021-08-09T02:29:00Z,00000200,00000000,0001.79,0001.36,0001.08,0000.21,0000.09,0000.39,-000.23,0000.13,-000.14,18.6,25.0,05.2,03.5,0670.7,31.0
2021-08-09T02:30:00Z,00000200,00000000,0001.97,0001.40,0000.83,0001.00,0000.16,0000.37,0000.25,0000.41,0000.49,18.6,24.9,05.2,03.5,0670.7,31.0
2021-08-09T02:31:00Z,00000200,00000000,0002.05,0001.61,0000.84,0001.06,0000.20,-000.04,-000.06,-000.54,-000.05,18.6,24.9,05.1,03.4,0670.7,31.0
2021-08-09T02:32:00Z,00000200,00000000,0002.18,0001.48,0001.08,-000.05,0000.20,0000.49,-000.04,0000.12,0000.20,18.5,24.9,05.2,03.5,0670.7,31.0
2021-08-09T02:33:00Z,00000200,00000000,0001.65,0001.57,0000.98,0000.10,0000.18,0000.26,-000.10,-000.01,0000.29,18.5,24.9,05.1,03.5,0670.7,31.0
2021-08-09T02:34:00Z,00000200,00000000,0002.22,0001.45,0000.86,0000.04,0000.15,0000.16,-000.23,-000.02,-000.29,18.5,24.9,05.1,03.4,0670.7,31.0
2021-08-09T02:35:00Z,00000200,00000000,0002.22,0001.78,0000.78,0000.17,0000.08,-000.21,0000.14,-000.09,0000.18,18.5,24.9,05.1,03.5,0670.7,31.0
2021-08-09T02:36:00Z,00000200,00000000,0002.67,0001.75,0000.81,0000.45,0000.18,0000.19,-000.30,0000.10,-000.09,18.5,24.9,05.0,03.4,0670.6,31.0
2021-08-09T02:37:00Z,00000200,00000000,0002.41,0001.99,0001.05,0000.31,0000.17,0000.14,0000.23,0000.27,0000.58,18.5,24.9,05.0,03.4,0670.6,31.0
2021-08-09T02:38:00Z,00000200,00000000,0002.44,0001.36,0001.16,0000.82,0000.21,0000.67,-000.11,-000.38,-000.20,18.5,24.9,05.0,03.4,0670.7,31.0
2021-08-09T02:39:00Z,00000200,00000000,0002.25,0001.88,0001.15,-000.29,0000.08,-000.03,-000.28,-000.11,-000.02,18.5,24.9,05.0,03.4,0670.6,31.0
2021-08-09T02:40:00Z,00000200,00000000,0002.27,0001.70,0001.32,0000.23,0000.07,0000.29,-000.08,0000.12,0000.06,18.5,24.9,04.9,03.3,0670.7,31.0
2021-08-09T02:41:00Z,00000200,00000000,0002.41,0002.21,0001.13,0000.17,0000.19,0000.41,0000.06,0000.31,0000.27,18.5,24.9,04.9,03.3,0670.6,31.0
2021-08-09T02:42:00Z,00000200,00000000,0002.11,0001.98,0001.24,0000.46,0000.34,0000.52,-000.08,0000.09,0000.26,18.5,24.9,04.9,03.3,0670.6,31.0
2021-08-09T02:43:00Z,00000200,00000000,0002.15,0002.08,0001.09,0000.69,0000.11,0000.26,0000.15,-000.32,0000.42,18.5,24.8,04.9,03.3,0670.6,31.0
2021-08-09T02:44:00Z,00000200,00000000,0002.33,0001.87,0001.15,0000.59,0000.25,0000.43,-000.28,0000.00,-000.16,18.5,24.8,04.9,03.3,0670.6,31.0
2021-08-09T02:45:00Z,00000200,00000000,0002.79,0002.37,0001.16,0000.46,0000.40,0000.38,0000.38,0000.21,0000.62,18.5,24.8,04.9,03.3,0670.6,31.0
2021-08-09T02:46:00Z,00000200,00000000,0003.07,0002.12,0001.20,0000.87,0000.17,0000.06,-000.12,-000.18,-000.08,18.5,24.8,04.8,03.3,0670.7,31.0
2021-08-09T02:47:00Z,00000200,00000000,0003.18,0002.12,0001.41,0001.14,0000.24,0000.23,0000.09,0000.31,0000.57,18.5,24.8,04.8,03.3,0670.7,31.0
2021-08-09T02:48:00Z,00000200,00000000,0002.46,0002.13,0001.50,0000.02,0000.41,0000.23,-000.47,-000.39,-000.49,18.4,24.8,04.9,03.3,0670.7,31.0
2021-08-09T02:49:00Z,00000200,00000000,0002.63,0002.28,0001.22,0000.53,0000.28,0000.10,0000.30,0000.44,0000.53,18.4,24.8,04.8,03.3,0670.7,31.0
2021-08-09T02:50:00Z,00000200,00000000,0001.92,0002.39,0001.40,0000.75,0000.46,0000.37,-000.27,-000.18,0000.02,18.4,24.8,04.9,03.3,0670.7,31.0
2021-08-09T02:51:00Z,00000200,00000000,0002.75,0002.23,0001.03,-000.19,0000.32,0000.09,-000.27,-000.17,0000.19,18.4,24.8,04.8,03.3,0670.7,31.0
2021-08-09T02:52:00Z,00000200,00000000,0003.32,0001.99,0001.28,0000.31,0000.20,0000.29,0000.03,-000.03,-000.05,18.4,24.8,04.8,03.3,0670.7,31.0
2021-08-09T02:53:00Z,00000200,00000000,0002.77,0002.34,0001.52,-000.34,0000.29,-000.01,-000.28,-000.30,0000.18,18.4,24.8,04.8,03.3,0670.7,31.0
2021-08-09T02:54:00Z,00000200,00000000,0002.31,0002.24,0001.01,0000.23,0000.15,0000.31,0000.09,0000.27,0000.44,18.5,24.9,04.7,03.2,0670.7,31.0
2021-08-09T02:55:00Z,00000200,00000000,0002.00,0002.10,0001.43,0000.53,0000.23,0000.33,0000.17,-000.10,0000.09,18.6,24.9,04.7,03.2,0670.7,31.0
2021-08-09T02:56:00Z,00000200,00000000,0002.81,0002.20,0001.19,-000.39,0000.04,0000.41,-000.27,0000.23,0000.38,18.7,25.0,04.7,03.2,0670.7,31.0
2021-08-09T02:57:00Z,00000200,40000000,,,,,,,0000.50,0000.22,0000.37,18.8,25.0,04.8,03.3,0670.7,31.1
2021-08-09T02:58:00Z,00000200,60000000,,,,,,,-000.25,-000.15,-000.54,18.5,25.2,04.9,03.2,0669.8,31.1
2021-08-09T02:59:00Z,00000200,20000000,,,,,,,-000.06,-000.31,0000.03,18.5,25.3,04.8,03.2,0669.8,31.1
